Kansas City, MO

5:05 AM CST on February 21, 2017 (GMT -0600)
Kansas City Downtown

Weather History for KMKC - May, 2013

Change the Weather History Date:

Monday, May 27, 2013

  Actual Average Record
Temperature  
Mean Temperature 72 °F -  
Max Temperature 82 °F 76 °F 91 °F (2006)
Min Temperature 62 °F 57 °F 51 °F (1997)
Cooling Degree Days 6    
Growing Degree Days 22 (Base 50)    
Moisture  
Dew Point 63 °F    
Average Humidity 79    
Maximum Humidity 94    
Minimum Humidity 60    
Precipitation  
Precipitation 2.18 in - - ()
Sea Level Pressure  
Sea Level Pressure 29.83 in    
Wind  
Wind Speed 12 mph (ESE)    
Max Wind Speed 26 mph    
Max Gust Speed 39 mph    
Visibility 7 miles    
Events Rain , Thunderstorm    
Averages and records for this station are not official NWS values.
T = Trace of Precipitation, MM = Missing Value Source: NWS Daily Summary

Daily Weather History Graph

Daily Weather History Graph

Search for Another Location

Airport or City:

Trip Planner

Search our weather history database for the weather conditions in past years. The results will help you decide how hot, cold, wet, or windy it might be!

Date:

Astronomy

May. 27, 2013 Rise Set
Actual Time 5:56 AM CDT 8:35 PM CDT
Civil Twilight 5:25 AM CDT 9:06 PM CDT
Nautical Twilight 4:46 AM CDT 9:45 PM CDT
Astronomical Twilight 4:02 AM CDT 10:29 PM CDT
Moon 11:15 PM CDT (5/27) 8:34 AM CDT (5/27)
Length of Visible Light 15h 41m
Length of Day
14h 38m
Waning Gibbous, 91% of the Moon is Illuminated
May 27
Waning Gibbous
May 31
Last Quarter
Jun 8
New
Jun 16
First Quarter
Jun 23
Full

Hourly Weather History & Observations

Time (CDT) Temp. Heat Index Dew Point Humidity Pressure Visibility Wind Dir Wind Speed Gust Speed Precip Events Conditions
12:54 AM 75.9 °F - 63.0 °F 64% 29.92 in 10.0 mi ESE 6.9 mph - N/A   Scattered Clouds
1:54 AM 75.9 °F - 63.0 °F 64% 29.91 in 10.0 mi SSE 13.8 mph 20.7 mph N/A   Clear
2:54 AM 73.0 °F - 62.1 °F 68% 29.90 in 10.0 mi SE 13.8 mph 19.6 mph N/A   Mostly Cloudy
3:54 AM 73.0 °F - 62.1 °F 68% 29.88 in 10.0 mi SSE 9.2 mph - N/A   Overcast
4:33 AM 73.4 °F - 62.6 °F 69% 29.89 in 10.0 mi ESE 5.8 mph - N/A   Overcast
4:54 AM 72.0 °F - 61.0 °F 68% 29.85 in 10.0 mi ESE 8.1 mph - N/A   Overcast
5:06 AM 71.6 °F - 60.8 °F 69% 29.86 in 10.0 mi SE 9.2 mph - N/A   Overcast
5:52 AM 71.6 °F - 60.8 °F 69% 29.83 in 10.0 mi SSE 15.0 mph 20.7 mph N/A   Mostly Cloudy
5:54 AM 72.0 °F - 61.0 °F 68% 29.81 in 10.0 mi South 11.5 mph 20.7 mph N/A   Mostly Cloudy
6:02 AM 71.6 °F - 60.8 °F 69% 29.83 in 10.0 mi SE 15.0 mph 21.9 mph N/A   Mostly Cloudy
6:13 AM 71.6 °F - 60.8 °F 69% 29.84 in 10.0 mi SSE 13.8 mph 20.7 mph N/A   Overcast
6:54 AM 72.0 °F - 62.1 °F 71% 29.80 in 10.0 mi South 13.8 mph 20.7 mph N/A   Overcast
7:54 AM 71.1 °F - 61.0 °F 70% 29.85 in 10.0 mi WNW 19.6 mph 32.2 mph N/A Thunderstorm Overcast
8:03 AM 66.2 °F - 62.6 °F 88% 29.87 in 1.8 mi NNE 18.4 mph 25.3 mph 0.11 in Rain , Thunderstorm Heavy Rain
8:12 AM 66.2 °F - 60.8 °F 83% 29.87 in 3.0 mi NNW 8.1 mph 24.2 mph 0.12 in Rain , Thunderstorm Light Thunderstorms and Rain
8:24 AM 66.2 °F - 62.6 °F 88% 29.87 in 2.5 mi North 6.9 mph - 0.19 in Rain , Thunderstorm Heavy Thunderstorms and Rain
8:27 AM 64.4 °F - 62.6 °F 94% 29.87 in 1.8 mi North 3.5 mph - 0.27 in Rain , Thunderstorm Heavy Thunderstorms and Rain
8:54 AM 64.9 °F - 63.0 °F 93% 29.88 in 1.8 mi NE 3.5 mph - 0.82 in Rain , Thunderstorm Heavy Thunderstorms and Rain
9:00 AM 64.4 °F - 62.6 °F 94% 29.90 in 3.0 mi NNE 5.8 mph - 0.02 in Rain , Thunderstorm Thunderstorms and Rain
9:16 AM 64.4 °F - 62.6 °F 94% 29.84 in 3.0 mi East 15.0 mph - 0.18 in Rain , Thunderstorm Heavy Thunderstorms and Rain
9:26 AM 64.4 °F - 62.6 °F 94% 29.87 in 2.5 mi East 11.5 mph - 0.33 in Rain , Thunderstorm Heavy Thunderstorms and Rain
9:34 AM 64.4 °F - 62.6 °F 94% 29.90 in 6.0 mi NE 8.1 mph - 0.33 in Rain , Thunderstorm Light Thunderstorms and Rain
9:45 AM 64.4 °F - 62.6 °F 94% 29.90 in 4.0 mi NNE 13.8 mph - 0.41 in Rain , Thunderstorm Heavy Thunderstorms and Rain
9:52 AM 64.4 °F - 62.6 °F 94% 29.92 in 2.5 mi NNE 11.5 mph - 0.49 in Rain , Thunderstorm Heavy Thunderstorms and Rain
9:54 AM 64.0 °F - 62.1 °F 93% 29.91 in 2.0 mi NNE 12.7 mph - 0.53 in Rain , Thunderstorm Heavy Thunderstorms and Rain
10:00 AM 64.4 °F - 62.6 °F 94% 29.92 in 1.8 mi NNE 15.0 mph - 0.12 in Rain , Thunderstorm Heavy Thunderstorms and Rain
10:08 AM 62.6 °F - 60.8 °F 94% 29.90 in 1.8 mi ENE 17.3 mph 23.0 mph 0.23 in Rain , Thunderstorm Heavy Rain
10:10 AM 62.6 °F - 60.8 °F 94% 29.89 in 2.0 mi ENE 20.7 mph 26.5 mph 0.26 in Rain , Thunderstorm Heavy Rain
10:21 AM 62.6 °F - 60.8 °F 94% 29.88 in 2.0 mi ENE 26.5 mph 39.1 mph 0.45 in Rain , Thunderstorm Heavy Rain
10:49 AM 64.4 °F - 60.8 °F 88% 29.89 in 5.0 mi ENE 10.4 mph - 0.73 in Rain , Thunderstorm Thunderstorms and Rain
10:54 AM 64.0 °F - 61.0 °F 90% 29.88 in 5.0 mi ENE 9.2 mph - 0.75 in Rain , Thunderstorm Heavy Thunderstorms and Rain
11:01 AM 64.4 °F - 60.8 °F 88% 29.91 in 3.0 mi North 11.5 mph - 0.02 in Rain , Thunderstorm Thunderstorms and Rain
11:54 AM 64.0 °F - 60.1 °F 87% 29.86 in 3.0 mi NE 18.4 mph 23.0 mph 0.08 in Rain , Thunderstorm Light Thunderstorms and Rain
12:01 PM 64.4 °F - 60.8 °F 88% 29.88 in 8.0 mi East 13.8 mph 23.0 mph 0.00 in Rain , Thunderstorm Light Thunderstorms and Rain
12:18 PM 64.4 °F - 60.8 °F 88% 29.87 in 10.0 mi ESE 11.5 mph 21.9 mph 0.00 in Rain , Thunderstorm Light Rain
12:29 PM 64.4 °F - 60.8 °F 88% 29.87 in 10.0 mi ESE 11.5 mph 23.0 mph 0.00 in Thunderstorm Mostly Cloudy
12:39 PM 64.4 °F - 60.8 °F 88% 29.82 in 10.0 mi SE 21.9 mph 31.1 mph 0.00 in   Mostly Cloudy
12:54 PM 64.9 °F - 61.0 °F 87% 29.80 in 10.0 mi SE 18.4 mph 33.4 mph 0.00 in   Mostly Cloudy
1:04 PM 64.4 °F - 60.8 °F 88% 29.82 in 10.0 mi SE 13.8 mph 24.2 mph N/A   Mostly Cloudy
1:54 PM 69.1 °F - 63.0 °F 81% 29.77 in 10.0 mi SSE 11.5 mph 24.2 mph N/A   Scattered Clouds
2:54 PM 72.0 °F - 63.0 °F 73% 29.75 in 10.0 mi SE 11.5 mph 18.4 mph N/A   Clear
3:54 PM 77.0 °F - 64.9 °F 66% 29.71 in 10.0 mi SSE 10.4 mph - N/A   Partly Cloudy
4:54 PM 78.1 °F - 66.9 °F 68% 29.69 in 10.0 mi South 11.5 mph - N/A   Overcast
5:02 PM 77.0 °F - 66.2 °F 69% 29.71 in 10.0 mi South 12.7 mph - N/A   Overcast
5:13 PM 78.8 °F - 66.2 °F 65% 29.70 in 10.0 mi South 11.5 mph - N/A   Overcast
5:28 PM 78.8 °F - 66.2 °F 65% 29.69 in 10.0 mi South 9.2 mph - N/A   Overcast
5:54 PM 79.0 °F - 68.0 °F 69% 29.67 in 10.0 mi SSE 6.9 mph - N/A   Overcast
6:54 PM 81.0 °F 83.0 °F 66.0 °F 60% 29.67 in 10.0 mi SSW 12.7 mph 24.2 mph N/A   Mostly Cloudy
7:54 PM 80.1 °F 82.1 °F 66.0 °F 62% 29.68 in 10.0 mi South 11.5 mph - N/A   Overcast
8:54 PM 79.0 °F - 66.0 °F 64% 29.67 in 10.0 mi South 9.2 mph - N/A   Overcast
9:54 PM 79.0 °F - 66.0 °F 64% 29.69 in 10.0 mi South 8.1 mph - N/A   Overcast
10:54 PM 79.0 °F - 64.9 °F 62% 29.70 in 10.0 mi South 11.5 mph 18.4 mph N/A   Overcast
11:54 PM 78.1 °F - 64.9 °F 64% 29.67 in 10.0 mi South 18.4 mph 23.0 mph N/A   Overcast